Weather History for Aurora, CO

Change the Weather History Date:

Sunday, June 23, 2013

  Actual Average Record
Temperature  
Mean Temperature 69 °F -  
Max Temperature 87 °F 80 °F 102 °F (2012)
Min Temperature 51 °F 53 °F 48 °F (2010)
Cooling Degree Days 4    
Growing Degree Days 19 (Base 50)    
Moisture  
Dew Point 45 °F    
Average Humidity 54    
Maximum Humidity 94    
Minimum Humidity 16    
Precipitation  
Precipitation 0.25 in - - ()
Sea Level Pressure  
Sea Level Pressure 29.83 in    
Wind  
Wind Speed 9 mph (ESE)    
Max Wind Speed 22 mph    
Max Gust Speed 36 mph    
Visibility 10 miles    
Events Rain , Thunderstorm    
Averages and records for this station are not official NWS values.
T = Trace of Precipitation, MM = Missing Value Source: NWS Daily Summary

Daily Weather History Graph

Daily Weather History Graph

Search for Another Location

Airport:

Trip Planner

Search our weather history database for the weather conditions in past years. The results will help you decide how hot, cold, wet, or windy it might be!

Date:

Astronomy

Jun. 23, 2013 Rise Set
Actual Time 5:31 AM MDT 8:30 PM MDT
Civil Twilight 4:59 AM MDT 9:03 PM MDT
Nautical Twilight 4:17 AM MDT 9:44 PM MDT
Astronomical Twilight 3:29 AM MDT 10:32 PM MDT
Moon 8:45 PM MDT (6/23) 5:52 AM MDT (6/23)
Length of Visible Light 16h 04m
Length of Day
14h 58m
Full, 100% of the Moon is Illuminated
Jun 23
Full
Jun 29
Last Quarter
Jul 8
New
Jul 15
First Quarter
Jul 22
Full

Hourly Weather History & Observations

Time (MDT) Temp. Dew Point Humidity Pressure Visibility Wind Dir Wind Speed Gust Speed Precip Events Conditions
12:55 AM 59.0 °F 46.4 °F 63% 29.78 in 10.0 mi North 5.8 mph - N/A   Partly Cloudy
1:55 AM 55.4 °F 48.2 °F 77% 29.79 in 10.0 mi NNE 5.8 mph - N/A   Partly Cloudy
2:55 AM 53.6 °F 48.2 °F 82% 29.81 in 10.0 mi SE 9.2 mph - N/A   Partly Cloudy
3:55 AM 51.8 °F 48.2 °F 88% 29.82 in 10.0 mi South 9.2 mph - N/A   Partly Cloudy
4:55 AM 53.6 °F 50.0 °F 88% 29.83 in 10.0 mi West 5.8 mph - N/A   Partly Cloudy
5:55 AM 51.8 °F 50.0 °F 94% 29.88 in 10.0 mi ESE 4.6 mph - N/A   Partly Cloudy
6:55 AM 55.4 °F 50.0 °F 82% 29.89 in 25.0 mi ENE 4.6 mph - N/A   Partly Cloudy
7:55 AM 60.8 °F 48.2 °F 63% 29.90 in 25.0 mi NE 8.1 mph - N/A   Partly Cloudy
8:55 AM 62.6 °F 48.2 °F 59% 29.90 in 25.0 mi ESE 4.6 mph - N/A   Partly Cloudy
9:55 AM 68.0 °F 46.4 °F 46% 29.88 in 25.0 mi East 4.6 mph - N/A   Partly Cloudy
10:55 AM 71.6 °F 41.0 °F 33% 29.86 in 25.0 mi SE 6.9 mph - N/A   Partly Cloudy
11:55 AM 77.0 °F 39.2 °F 26% 29.81 in 25.0 mi ESE 10.4 mph 20.7 mph N/A   Partly Cloudy
12:55 PM 82.4 °F 41.0 °F 23% 29.75 in 25.0 mi East 18.4 mph 24.2 mph N/A   Scattered Clouds
1:55 PM 87.8 °F 37.4 °F 17% 29.72 in 25.0 mi SE 21.9 mph 29.9 mph N/A   Scattered Clouds
2:55 PM 84.2 °F 35.6 °F 18% 29.70 in 70.0 mi SSE 13.8 mph 21.9 mph N/A   Mostly Cloudy
3:38 PM 82.4 °F 33.8 °F 17% 29.91 in 70.0 mi South 6.9 mph - N/A Thunderstorm Thunderstorm
3:47 PM 82.4 °F 32.0 °F 16% 29.91 in 70.0 mi South 10.4 mph - N/A Rain , Thunderstorm Light Thunderstorms and Rain
3:55 PM 82.4 °F 37.4 °F 20% 29.69 in 70.0 mi SSW 13.8 mph 35.7 mph N/A Rain , Thunderstorm Light Thunderstorms and Rain
4:55 PM 73.4 °F 42.8 °F 33% 29.72 in 70.0 mi ENE 10.4 mph - N/A Rain , Thunderstorm Light Thunderstorms and Rain
5:55 PM 68.0 °F 48.2 °F 49% 29.78 in 70.0 mi SE 19.6 mph 25.3 mph N/A Rain , Thunderstorm Light Thunderstorms and Rain
6:55 PM 64.4 °F 48.2 °F 56% 29.78 in 70.0 mi ESE 12.7 mph - N/A Rain , Thunderstorm Light Thunderstorms and Rain
7:55 PM 62.6 °F 48.2 °F 59% 29.76 in 70.0 mi North 3.5 mph - N/A Rain , Thunderstorm Light Thunderstorms and Rain
8:43 PM 64.4 °F 51.8 °F 64% 29.96 in 25.0 mi East 16.1 mph 25.3 mph N/A Thunderstorm Mostly Cloudy
8:55 PM 62.6 °F 50.0 °F 63% 29.78 in 25.0 mi ESE 19.6 mph 28.8 mph N/A Thunderstorm Mostly Cloudy
9:32 PM 59.0 °F 51.8 °F 77% 30.02 in 25.0 mi WNW 19.6 mph 25.3 mph N/A Thunderstorm Thunderstorm
9:55 PM 64.4 °F 46.4 °F 52% 29.81 in 25.0 mi ESE 6.9 mph - N/A Rain , Thunderstorm Light Thunderstorms and Rain
10:36 PM 60.8 °F 48.2 °F 63% 29.99 in 25.0 mi East 8.1 mph - N/A Thunderstorm Mostly Cloudy
10:55 PM 60.8 °F 50.0 °F 68% 29.81 in 25.0 mi ESE 9.2 mph - N/A   Mostly Cloudy
11:55 PM 59.0 °F 50.0 °F 72% 29.79 in 25.0 mi South 12.7 mph - N/A   Mostly Cloudy